OESH

Details ICAO OESH (SHW)
Name SHARURAH
Region Saudi Arabia
Timezone Asia/Riyadh (UTC+3.0)
Plans Departing 7
Arriving 13
Stats Elevation 2,363 ft / 720 m (AMSL)
Location 17.466875° 47.121429°
Runways 1
Magnetic Variation 2.016° E
Sunrise 2018-05-21 02:19:16 UTC / 2018-05-21 05:19:16 Local
Sunset 2018-05-21 15:19:47 UTC / 2018-05-21 18:19:47 Local
Advertisement - Login to hide

Runways

ID Width Length Bearing (true) Bearing (mag) Surface Threshold Offset Overrun Length
08 147 ft / 45 m 12,017 ft / 3,663 m 84.59° 82.57° Asphalt 0 ft / 0 m 400 ft / 122 m
26 147 ft / 45 m 12,017 ft / 3,663 m 264.60° 262.58° Asphalt 0 ft / 0 m 400 ft / 122 m

Approach Navaids

Runway Type Ident Frequency Range Bearing (true) Bearing (mag) Slope Elevation
08 Localiser ISHA 109.70 MHz 18 nm / 33 km 84.63° 82.61° - 2,363 ft / 720 m (AMSL)
08 Glidescope ISHA 109.70 MHz 10 nm / 19 km 84.60° 82.58° 3.00° 2,363 ft / 720 m (AMSL)
08 DME ISHA 109.70 MHz 18 nm / 33 km - - - 2,363 ft / 720 m (AMSL)

Map

Weather


0- 5 10 15 20 25 30 35+ Temperature / ° C

Clouds and Precipitation
Forecast for 2018-05-21 00:00 UTC. Updated 37 minutes ago

Ground ~20,000 ft ~40,000 ft Winds

METAR

OESH 202300Z 08009KT 9999 FEW040 30/06 Q1011 NOSIG

TAF

Not found

Frequencies

Unicom 122.80 MHz CTAF
Warning: Do not use this data for real-world aviation or navigation. No guarantee of current accuracy is given.